Location: Cabeza de los Veneras
(40.2000°N, 5.2000°W)
Time: 05:17:20
(UTC+00:00)

BlueWalker 3 - Pass Details

Date: 26 June 2024
Orbit: 480 x 491 km, 53.2° (Epoch: 21 July)

Event Time Altitude Azimuth Distance (km) Brightness Sun altitude
Rises 23:15:37 0° 316° (NW) 2,541 6.5 -24.5°
Reaches altitude 10° 23:18:26 10° 338° (NNW) 1,659 5.6 -24.7°
Maximum altitude 23:20:52 16° 19° (NNE) 1,310 4.7 -24.8°
Drops below altitude 10° 23:23:18 10° 60° (ENE) 1,655 4.7 -24.9°
Enters shadow 23:23:37 - 63° (ENE) 1,737 4.8 -25.0°
